Time,TemperatureF,DewpointF,PressureIn,WindDirection,WindDirectionDegrees,WindSpeedMPH,WindSpeedGustMPH,Humidity,HourlyPrecipIn,Conditions,Clouds,dailyrainin,SoftwareType,DateUTC
2013-03-02 00:14:00,32.9,23.0,29.84,WNW,298,2.0,12.0,66,0.00,,,0.00,weatherlink.com 1.10,2013-03-02 05:14:00,
2013-03-02 00:28:00,32.8,23.0,29.83,WNW,288,4.0,10.0,66,0.00,,,0.00,weatherlink.com 1.10,2013-03-02 05:28:00,
2013-03-02 00:43:00,32.8,23.0,29.83,WNW,300,4.0,12.0,67,0.00,,,0.00,weatherlink.com 1.10,2013-03-02 05:43:00,
2013-03-02 00:58:00,32.7,23.0,29.84,WNW,298,4.0,9.0,67,0.00,,,0.00,weatherlink.com 1.10,2013-03-02 05:58:00,
2013-03-02 01:13:00,32.7,23.0,29.84,WNW,294,10.0,11.0,68,0.00,,,0.00,weatherlink.com 1.10,2013-03-02 06:13:00,
2013-03-02 01:28:00,32.7,23.0,29.84,WNW,288,4.0,11.0,68,0.00,,,0.00,weatherlink.com 1.10,2013-03-02 06:28:00,
2013-03-02 01:43:00,32.6,23.0,29.85,WNW,297,2.0,10.0,68,0.00,,,0.00,weatherlink.com 1.10,2013-03-02 06:43:00,
2013-03-02 01:58:00,32.5,23.0,29.85,NW,306,5.0,9.0,68,0.00,,,0.00,weatherlink.com 1.10,2013-03-02 06:58:00,
2013-03-02 02:14:00,32.4,23.0,29.85,WNW,284,5.0,9.0,68,0.00,,,0.00,weatherlink.com 1.10,2013-03-02 07:14:00,
2013-03-02 02:28:00,32.3,23.0,29.84,WNW,285,7.0,7.0,69,0.00,,,0.00,weatherlink.com 1.10,2013-03-02 07:28:00,
2013-03-02 02:43:00,32.2,23.0,29.84,WNW,289,2.0,10.0,70,0.00,,,0.00,weatherlink.com 1.10,2013-03-02 07:43:00,
2013-03-02 02:58:00,32.0,23.0,29.83,WNW,298,2.0,7.0,70,0.00,,,0.00,weatherlink.com 1.10,2013-03-02 07:58:00,
2013-03-02 03:13:00,31.9,23.0,29.83,WNW,286,3.0,8.0,69,0.00,,,0.00,weatherlink.com 1.10,2013-03-02 08:13:00,
2013-03-02 03:28:00,31.7,22.0,29.83,West,274,3.0,9.0,68,0.00,,,0.00,weatherlink.com 1.10,2013-03-02 08:28:00,
2013-03-02 03:43:00,31.6,22.0,29.82,NW,305,5.0,11.0,67,0.00,,,0.00,weatherlink.com 1.10,2013-03-02 08:43:00,
2013-03-02 03:58:00,31.4,22.0,29.82,West,266,7.0,10.0,67,0.00,,,0.00,weatherlink.com 1.10,2013-03-02 08:58:00,
2013-03-02 04:13:00,31.3,21.0,29.82,WNW,298,4.0,10.0,67,0.00,,,0.00,weatherlink.com 1.10,2013-03-02 09:13:00,
2013-03-02 04:28:00,31.2,21.0,29.83,West,275,7.0,8.0,66,0.00,,,0.00,weatherlink.com 1.10,2013-03-02 09:28:00,
2013-03-02 04:43:00,31.1,21.0,29.83,NW,317,6.0,12.0,67,0.00,,,0.00,weatherlink.com 1.10,2013-03-02 09:43:00,
2013-03-02 04:59:00,31.0,21.0,29.83,WNW,284,5.0,10.0,66,0.00,,,0.00,weatherlink.com 1.10,2013-03-02 09:59:00,
2013-03-02 05:29:00,30.9,21.0,29.84,NW,304,2.0,5.0,66,0.00,,,0.00,weatherlink.com 1.10,2013-03-02 10:29:00,
2013-03-02 05:44:00,30.7,21.0,29.84,WNW,298,6.0,11.0,66,0.00,,,0.00,weatherlink.com 1.10,2013-03-02 10:44:00,
2013-03-02 05:59:00,30.7,21.0,29.84,WNW,283,2.0,10.0,66,0.00,,,0.00,weatherlink.com 1.10,2013-03-02 10:59:00,
2013-03-02 06:14:00,30.6,21.0,29.84,NW,316,2.0,9.0,67,0.00,,,0.00,weatherlink.com 1.10,2013-03-02 11:14:00,
2013-03-02 06:29:00,30.5,21.0,29.84,WNW,301,3.0,7.0,68,0.00,,,0.00,weatherlink.com 1.10,2013-03-02 11:29:00,
2013-03-02 15:59:00,32.5,25.0,29.79,WNW,296,6.0,13.0,73,0.00,,,0.00,weatherlink.com 1.10,2013-03-02 20:59:00,
2013-03-02 16:57:00,32.3,23.0,29.79,WNW,301,4.0,15.0,68,0.00,,,0.00,weatherlink.com 1.10,2013-03-02 21:57:00,
2013-03-02 17:15:00,32.6,22.0,29.80,WNW,292,7.0,16.0,65,0.00,,,0.00,weatherlink.com 1.10,2013-03-02 22:15:00,
2013-03-02 17:29:00,32.1,22.0,29.80,NNW,328,13.0,16.0,66,0.00,,,0.00,weatherlink.com 1.10,2013-03-02 22:29:00,
2013-03-02 17:45:00,31.5,23.0,29.80,NW,307,4.0,12.0,70,0.00,,,0.00,weatherlink.com 1.10,2013-03-02 22:45:00,
2013-03-02 18:00:00,30.8,22.0,29.81,WNW,289,7.0,13.0,71,0.00,,,0.00,weatherlink.com 1.10,2013-03-02 23:00:00,
2013-03-02 18:15:00,30.3,23.0,29.81,WNW,290,9.0,13.0,73,0.00,,,0.00,weatherlink.com 1.10,2013-03-02 23:15:00,
2013-03-02 18:30:00,29.9,22.0,29.82,WNW,290,3.0,11.0,73,0.00,,,0.00,weatherlink.com 1.10,2013-03-02 23:30:00,
2013-03-02 18:45:00,29.5,22.0,29.82,WNW,291,3.0,7.0,73,0.00,,,0.00,weatherlink.com 1.10,2013-03-02 23:45:00,
2013-03-02 19:00:00,29.3,22.0,29.82,WNW,296,1.0,6.0,73,0.00,,,0.00,weatherlink.com 1.10,2013-03-03 00:00:00,
2013-03-02 19:15:00,29.3,22.0,29.82,NW,309,4.0,8.0,73,0.00,,,0.00,weatherlink.com 1.10,2013-03-03 00:15:00,
2013-03-02 19:30:00,29.6,21.0,29.82,WNW,286,4.0,6.0,71,0.00,,,0.00,weatherlink.com 1.10,2013-03-03 00:30:00,
2013-03-02 19:45:00,29.9,21.0,29.82,NW,307,2.0,7.0,70,0.00,,,0.00,weatherlink.com 1.10,2013-03-03 00:45:00,
2013-03-02 20:00:00,30.1,21.0,29.82,WSW,247,3.0,7.0,69,0.00,,,0.00,weatherlink.com 1.10,2013-03-03 01:00:00,
2013-03-02 20:15:00,30.3,21.0,29.83,NW,304,2.0,8.0,69,0.00,,,0.00,weatherlink.com 1.10,2013-03-03 01:15:00,
2013-03-02 20:30:00,30.3,20.0,29.83,WNW,285,4.0,8.0,67,0.00,,,0.00,weatherlink.com 1.10,2013-03-03 01:30:00,
2013-03-02 20:45:00,30.3,20.0,29.83,WNW,302,4.0,10.0,67,0.00,,,0.00,weatherlink.com 1.10,2013-03-03 01:45:00,
2013-03-02 21:00:00,30.1,20.0,29.84,WNW,288,2.0,7.0,67,0.00,,,0.00,weatherlink.com 1.10,2013-03-03 02:00:00,
2013-03-02 21:15:00,29.8,20.0,29.84,West,279,3.0,5.0,67,0.00,,,0.00,weatherlink.com 1.10,2013-03-03 02:15:00,
2013-03-02 21:30:00,29.7,20.0,29.84,WNW,288,4.0,11.0,68,0.00,,,0.00,weatherlink.com 1.10,2013-03-03 02:30:00,
2013-03-02 21:45:00,30.0,21.0,29.84,West,273,4.0,14.0,69,0.00,,,0.00,weatherlink.com 1.10,2013-03-03 02:45:00,
2013-03-02 22:00:00,30.0,21.0,29.83,West,273,10.0,16.0,70,0.00,,,0.00,weatherlink.com 1.10,2013-03-03 03:00:00,
2013-03-02 22:15:00,29.7,21.0,29.83,West,280,11.0,11.0,71,0.00,,,0.00,weatherlink.com 1.10,2013-03-03 03:15:00,
2013-03-02 22:30:00,29.5,21.0,29.83,WNW,291,3.0,10.0,71,0.00,,,0.00,weatherlink.com 1.10,2013-03-03 03:30:00,
2013-03-02 22:45:00,29.4,21.0,29.83,WNW,302,7.0,8.0,71,0.00,,,0.00,weatherlink.com 1.10,2013-03-03 03:45:00,
2013-03-02 23:00:00,29.5,21.0,29.83,NW,305,3.0,10.0,71,0.00,,,0.00,weatherlink.com 1.10,2013-03-03 04:00:00,
2013-03-02 23:15:00,29.6,21.0,29.83,West,263,4.0,14.0,70,0.00,,,0.00,weatherlink.com 1.10,2013-03-03 04:15:00,
2013-03-02 23:30:00,29.5,20.0,29.82,WNW,293,6.0,11.0,69,0.00,,,0.00,weatherlink.com 1.10,2013-03-03 04:30:00,
2013-03-02 23:45:00,29.2,20.0,29.82,WNW,297,8.0,11.0,69,0.00,,,0.00,weatherlink.com 1.10,2013-03-03 04:45:00,